Minneapolis Flying Cloud, MN

8:14 PM CDT on April 25, 2018 (GMT -0500)
Flying Cloud

Weather History for KFCM - December, 2012

Change the Weather History Date:

Wednesday, December 19, 2012

  Actual Average Record
Temperature  
Mean Temperature 27 °F -  
Max Temperature 30 °F 25 °F 42 °F (2006)
Min Temperature 24 °F 11 °F -11 °F (2005)
Degree Days  
Heating Degree Days 38    
Moisture  
Dew Point 24 °F    
Average Humidity 85    
Maximum Humidity 96    
Minimum Humidity 66    
Precipitation  
Precipitation 0.00 in - - ()
Sea Level Pressure  
Sea Level Pressure 29.96 in    
Wind  
Wind Speed 6 mph (SW)    
Max Wind Speed 10 mph    
Max Gust Speed -    
Visibility 6 miles    
Events Snow    
Averages and records for this station are not official NWS values.
T = Trace of Precipitation, MM = Missing Value Source: NWS Daily Summary

Daily Weather History Graph

Daily Weather History Graph

Search for Another Location

Airport or City:

Astronomy

Dec. 19, 2012 Rise Set
Actual Time 7:47 AM CST 4:34 PM CST
Civil Twilight 7:13 AM CST 5:08 PM CST
Nautical Twilight 6:36 AM CST 5:45 PM CST
Astronomical Twilight 6:01 AM CST 6:21 PM CST
Moon 11:40 AM CST (12/19) No Moon Set
Length of Visible Light 9h 54m
Length of Day
8h 47m
Waxing Crescent, 45% of the Moon is Illuminated
Dec 19
Waxing Crescent
Dec 19
First Quarter
Dec 28
Full
Jan 4
Last Quarter
Jan 11
New

Hourly Weather History & Observations

Time (CST) Temp. Windchill Dew Point Humidity Pressure Visibility Wind Dir Wind Speed Gust Speed Precip Events Conditions
12:09 AM 28.4 °F 23.3 °F 26.6 °F 93% 29.81 in 4.0 mi SSW 4.6 mph - N/A   Overcast
12:53 AM 30.0 °F 23.2 °F 26.1 °F 85% 29.86 in 4.0 mi SW 6.9 mph - N/A   Overcast
1:53 AM 30.0 °F 23.2 °F 27.0 °F 88% 29.87 in 6.0 mi WSW 6.9 mph - N/A   Overcast
2:53 AM 30.0 °F 21.7 °F 25.0 °F 82% 29.88 in 9.0 mi West 9.2 mph - N/A   Overcast
3:53 AM 30.0 °F 23.2 °F 25.0 °F 82% 29.88 in 10.0 mi West 6.9 mph - N/A   Overcast
4:53 AM 30.0 °F 25.2 °F 26.1 °F 85% 29.88 in 9.0 mi WSW 4.6 mph - N/A   Overcast
5:27 AM 28.4 °F 23.3 °F 24.8 °F 86% 29.87 in 8.0 mi SW 4.6 mph - N/A   Overcast
5:53 AM 28.9 °F 23.9 °F 25.0 °F 85% 29.92 in 8.0 mi SW 4.6 mph - N/A   Overcast
6:20 AM 28.4 °F 24.6 °F 24.8 °F 86% 29.90 in 8.0 mi SW 3.5 mph - N/A   Overcast
6:34 AM 28.4 °F 23.3 °F 24.8 °F 86% 29.91 in 8.0 mi SSW 4.6 mph - N/A   Overcast
6:53 AM 28.0 °F 20.8 °F 25.0 °F 88% 29.95 in 7.0 mi South 6.9 mph - N/A   Mostly Cloudy
7:13 AM 26.6 °F 21.2 °F 23.0 °F 86% 29.91 in 6.0 mi SSW 4.6 mph - N/A   Scattered Clouds
7:53 AM 24.1 °F 19.7 °F 21.9 °F 91% 29.96 in 4.0 mi SSW 3.5 mph - N/A   Partly Cloudy
8:53 AM 24.1 °F 18.2 °F 21.9 °F 91% 29.97 in 4.0 mi South 4.6 mph - N/A   Clear
9:35 AM 24.8 °F 15.3 °F 21.2 °F 86% 29.94 in 5.0 mi SSW 9.2 mph - N/A   Partly Cloudy
9:53 AM 24.1 °F 16.0 °F 21.9 °F 91% 29.99 in 5.0 mi South 6.9 mph - N/A   Mostly Cloudy
10:00 AM 24.8 °F 16.1 °F 21.2 °F 86% 29.96 in 4.0 mi South 8.1 mph - N/A   Scattered Clouds
10:10 AM 24.8 °F 15.3 °F 21.2 °F 86% 29.96 in 3.0 mi South 9.2 mph - N/A   Mostly Cloudy
10:38 AM 24.8 °F 20.5 °F 21.2 °F 86% 29.97 in 2.0 mi SSW 3.5 mph - N/A   Overcast
10:53 AM 25.0 °F 20.7 °F 24.1 °F 96% 30.01 in 2.0 mi SSW 3.5 mph - N/A   Overcast
11:26 AM 26.6 °F 20.0 °F 24.8 °F 93% 29.97 in 2.0 mi South 5.8 mph - N/A   Overcast
11:53 AM 27.0 °F 20.5 °F 24.1 °F 89% 30.01 in 2.0 mi South 5.8 mph - N/A   Mostly Cloudy
12:14 PM 28.4 °F 23.3 °F 24.8 °F 86% 29.97 in 6.0 mi South 4.6 mph - N/A   Scattered Clouds
12:53 PM 28.9 °F 23.9 °F 25.0 °F 85% 29.99 in 8.0 mi South 4.6 mph - N/A   Clear
1:53 PM 30.0 °F 24.1 °F 25.0 °F 82% 30.01 in 10.0 mi SSW 5.8 mph - N/A   Clear
2:53 PM 30.0 °F 25.2 °F 26.1 °F 85% 30.00 in 10.0 mi SSW 4.6 mph - N/A   Mostly Cloudy
3:53 PM 28.9 °F - 25.0 °F 85% 30.01 in 9.0 mi Calm Calm - N/A   Clear
4:53 PM 28.9 °F - 25.0 °F 85% 29.99 in 9.0 mi Calm Calm - N/A   Partly Cloudy
5:53 PM 28.9 °F - 25.0 °F 85% 29.98 in 9.0 mi Calm Calm - N/A   Mostly Cloudy
6:53 PM 28.9 °F - 25.0 °F 85% 30.02 in 8.0 mi Calm Calm - N/A   Overcast
7:53 PM 28.9 °F 23.9 °F 25.0 °F 85% 30.06 in 8.0 mi West 4.6 mph - N/A   Overcast
8:51 PM 28.4 °F 21.2 °F 24.8 °F 86% 30.01 in 2.5 mi NNW 6.9 mph - 0.00 in Snow Light Snow
8:53 PM 28.9 °F 21.1 °F 24.1 °F 82% 30.05 in 2.5 mi NNW 8.1 mph - 0.00 in Snow Light Snow
9:00 PM 28.4 °F 22.2 °F 24.8 °F 86% 30.01 in 3.0 mi NNW 5.8 mph - 0.00 in Snow Light Snow
9:53 PM 28.0 °F 18.6 °F 21.0 °F 75% 30.00 in 10.0 mi North 10.4 mph - 0.00 in   Overcast
10:53 PM 28.0 °F 20.8 °F 18.0 °F 66% 29.99 in 10.0 mi North 6.9 mph - N/A   Overcast
11:53 PM 27.0 °F 18.7 °F 19.0 °F 72% 29.99 in 10.0 mi North 8.1 mph - N/A   Overcast